K2EJ-13 Weather Reports


time (UTC)temp
C
wind
direction
speed
KPH
gust
KPH
rain 1hr
cm
rain 24hr
cm
rain mn
cm
humidity
%
barometer
mb
20260507070515 13 348 3.2 11.3 0.00 0.00 0.00 97 1010.1
20260507065515 13 39 3.2 14.5 0.00 0.00 0.00 97 1009.9
20260507064515 13 331 1.6 4.8 0.00 0.00 0.00 97 1010.0
20260507063515 13 350 3.2 14.5 0.00 0.00 0.00 98 1010.1
20260507062535 13 18 0.0 6.4 0.00 0.00 0.00 98 1009.9
20260507061535 14 0.0 0.0 0.00 0.00 0.00 98 1010.2
20260507060515 14 291 0.0 9.7 0.00 0.00 0.00 98 1010.1
20260507055556 14 329 0.0 3.2 0.00 0.00 0.00 98 1010.2
20260507054516 14 127 0.0 4.8 0.00 0.00 0.00 98 1010.0
20260507053516 14 27 0.0 3.2 0.00 0.00 0.00 98 1010.1
20260507052515 15 343 0.0 3.2 0.00 0.00 0.00 98 1010.1
20260507051516 15 110 1.6 6.4 0.00 0.00 0.00 97 1010.0
20260507050515 15 174 0.0 4.8 0.00 0.00 0.00 96 1010.3
20260507045516 16 29 3.2 12.9 0.00 0.00 0.00 90 1009.6
20260507044536 16 216 0.0 1.6 0.00 0.00 0.00 89 1009.5
20260507043515 16 318 1.6 9.7 0.00 0.00 0.00 89 1009.6
20260507042515 16 293 0.0 4.8 0.00 0.00 0.00 89 1009.2
20260507041535 16 3 1.6 6.4 0.00 0.00 0.00 88 1009.3
20260507040516 16 275 0.0 3.2 0.00 0.00 0.00 87 1009.3
20260507035535 16 297 1.6 6.4 0.00 0.00 0.00 86 1009.3
20260507034515 17 320 3.2 8.0 0.00 0.00 0.00 85 1009.5
20260507033516 17 314 3.2 9.7 0.00 0.00 0.00 86 1009.3
20260507032556 17 319 3.2 11.3 0.00 0.00 0.00 86 1009.1
20260507031556 17 31 1.6 9.7 0.00 0.00 0.00 88 1008.8
20260507030535 18 339 1.6 8.0 0.00 0.00 0.00 94 1008.9
20260507025515 18 316 1.6 6.4 0.00 0.00 0.00 95 1008.7
20260507024515 18 316 1.6 8.0 0.00 0.00 0.00 95 1008.5
20260507023515 18 313 0.0 3.2 0.00 0.00 0.00 96 1008.5
20260507022556 18 314 0.0 6.4 0.00 0.00 0.00 97 1008.4
20260507021535 18 35 0.0 3.2 0.00 0.00 0.00 98 1008.3
20260507020515 18 0.0 0.0 0.00 0.00 0.00 98 1008.3
20260507015515 18 0.0 0.0 0.00 0.00 0.00 98 1008.8
20260507014516 18 0.0 0.0 0.00 0.00 0.00 98 1008.7
20260507013515 18 0.0 0.0 0.00 0.00 0.00 97 1008.7
20260507012515 18 299 1.6 3.2 0.00 0.00 0.00 97 1008.6
20260507011515 18 0.0 0.0 0.00 0.00 0.00 96 1008.5
20260507010515 18 0.0 0.0 0.00 0.00 0.00 96 1008.3
20260507005516 18 0.0 0.0 0.00 0.00 0.00 95 1008.2
20260507004515 19 0.0 0.0 0.00 0.00 0.00 94 1007.9
20260507003515 19 170 0.0 1.6 0.00 0.00 0.00 93 1007.6
20260507002535 19 138 1.6 6.4 0.00 0.00 0.00 93 1007.5
20260507001515 20 159 0.0 1.6 0.00 0.00 0.00 92 1007.8
20260507000515 20 0.0 0.0 0.00 0.00 0.00 91 1007.4
20260506235515 20 32 0.0 1.6 0.00 0.00 0.00 90 1007.4
20260506234516 20 0.0 0.0 0.00 0.00 0.00 89 1007.1
20260506233515 20 0.0 0.0 0.00 0.00 0.00 88 1007.1
20260506232516 20 0.0 0.0 0.00 0.00 0.00 87 1007.1
20260506231515 20 67 0.0 4.8 0.00 0.00 0.00 87 1007.1
20260506230515 20 0.0 0.0 0.00 0.00 0.00 87 1007.1
20260506225515 20 80 0.0 1.6 0.00 0.00 0.00 86 1006.9
20260506224515 20 0.0 0.0 0.00 0.00 0.00 85 1006.9
20260506223535 21 0.0 0.0 0.00 0.00 0.00 83 1006.9
20260506222515 21 0.0 0.0 0.00 0.00 0.00 82 1006.8
20260506221515 21 182 0.0 3.2 0.00 0.00 0.00 83 1006.8
20260506220515 21 179 1.6 6.4 0.00 0.00 0.00 81 1006.8
20260506215535 21 202 0.0 4.8 0.00 0.00 0.00 81 1006.6
20260506214535 21 179 3.2 6.4 0.00 0.00 0.00 80 1006.4
20260506213515 21 208 1.6 9.7 0.00 0.00 0.00 82 1006.3
20260506212515 21 183 1.6 4.8 0.00 0.00 0.00 80 1006.2
20260506211515 21 178 3.2 11.3 0.00 0.00 0.00 79 1005.9
20260506210515 22 173 1.6 6.4 0.00 0.00 0.00 78 1005.7
20260506205515 22 182 3.2 8.0 0.00 0.00 0.00 77 1005.5
20260506204515 21 161 0.0 4.8 0.00 0.00 0.00 78 1005.4
20260506203515 21 200 4.8 16.1 0.00 0.00 0.00 75 1005.0
20260506202516 22 187 3.2 12.9 0.00 0.00 0.00 75 1004.7
20260506201556 22 199 4.8 17.7 0.00 0.00 0.00 74 1004.4
20260506200515 22 202 3.2 9.7 0.00 0.00 0.00 73 1004.4
20260506195515 22 207 1.6 11.3 0.00 0.00 0.00 74 1002.1
20260506194515 22 231 1.6 9.7 0.00 0.00 0.00 76 1003.8
20260506193515 21 186 4.8 14.5 0.00 0.00 0.00 76 1004.0
20260506192515 21 200 4.8 16.1 0.00 0.00 0.00 78 1004.9
20260506191515 21 161 1.6 6.4 0.00 0.00 0.00 83 1005.6
20260506190515 20 158 1.6 6.4 0.00 0.00 0.00 85 1007.2
20260506185515 20 196 4.8 11.3 0.00 0.00 0.00 87 1007.3
20260506184515 20 5 0.0 4.8 0.00 0.00 0.00 88 1007.3
20260506183515 19 220 1.6 9.7 0.00 0.00 0.00 88 1007.3
20260506182515 19 179 4.8 16.1 0.00 0.00 0.00 88 1007.3
20260506181516 19 217 3.2 16.1 0.00 0.00 0.00 91 1007.6
20260506180515 18 176 3.2 12.9 0.00 0.00 0.00 93 1007.6
20260506175515 18 172 3.2 12.9 0.00 0.00 0.00 95 1007.5
20260506174536 18 172 3.2 12.9 0.00 0.00 0.00 96 1007.8
20260506173515 18 189 3.2 12.9 0.00 0.00 0.00 96 1007.8
20260506172515 17 184 0.0 4.8 0.00 0.00 0.00 97 1007.8
20260506171515 17 146 0.0 6.4 0.00 0.00 0.00 97 1007.8
20260506170515 17 192 3.2 12.9 0.00 0.00 0.00 97 1008.0
20260506165516 17 175 3.2 14.5 0.00 0.00 0.00 98 1008.1
20260506164535 17 191 1.6 4.8 0.00 0.00 0.00 98 1008.0
20260506163516 17 134 1.6 11.3 0.00 0.00 0.00 98 1008.2
20260506162515 17 196 6.4 19.3 0.00 0.00 0.00 97 1008.2
20260506161515 17 186 6.4 19.3 0.00 0.00 0.00 97 1008.3
20260506160535 17 184 4.8 11.3 0.00 0.00 0.00 97 1008.4
20260506155536 17 181 3.2 12.9 0.00 0.00 0.00 97 1008.2
20260506154515 17 169 4.8 12.9 0.00 0.00 0.00 98 1008.4
20260506153515 17 144 3.2 11.3 0.00 0.00 0.00 98 1008.7
20260506152515 17 184 1.6 14.5 0.00 0.00 0.00 97 1008.9
20260506150515 17 165 1.6 6.4 0.00 0.00 0.00 97 1009.2
20260506145515 17 168 1.6 6.4 0.00 0.00 0.00 97 1009.1
20260506144515 17 181 0.0 4.8 0.00 0.00 0.00 97 1008.9
20260506143515 17 179 1.6 11.3 0.00 0.00 0.00 97 1008.9
20260506142515 17 168 1.6 8.0 0.00 0.00 0.00 97 1008.9
20260506141515 17 169 1.6 8.0 0.00 0.00 0.00 96 1009.3
20260506140515 17 185 1.6 9.7 0.00 0.00 0.00 96 1009.4
20260506135515 17 163 3.2 12.9 0.00 0.00 0.00 94 1009.3
20260506134515 17 172 3.2 12.9 0.00 0.00 0.00 92 1009.1
20260506133515 18 182 3.2 12.9 0.00 0.00 0.00 91 1009.2
20260506132515 18 180 4.8 11.3 0.00 0.00 0.00 88 1009.1
20260506131515 18 151 0.0 3.2 0.00 0.00 0.00 88 1008.9
20260506130556 18 165 1.6 8.0 0.00 0.00 0.00 88 1008.9
20260506125516 18 188 1.6 8.0 0.00 0.00 0.00 88 1009.0
20260506124515 18 190 1.6 12.9 0.00 0.00 0.00 88 1009.2
20260506123535 18 165 1.6 8.0 0.00 0.00 0.00 87 1009.5
20260506122515 18 193 3.2 11.3 0.00 0.00 0.00 85 1009.5
20260506121515 18 188 6.4 16.1 0.00 0.00 0.00 84 1009.6
20260506120535 18 184 4.8 14.5 0.00 0.00 0.00 84 1009.6
20260506115535 18 177 4.8 19.3 0.00 0.00 0.00 84 1009.3
20260506114515 18 173 4.8 12.9 0.00 0.00 0.00 83 1009.3
20260506113515 18 188 6.4 19.3 0.00 0.00 0.00 84 1009.2
20260506112515 18 181 6.4 19.3 0.00 0.00 0.00 83 1009.2
20260506111515 18 183 3.2 14.5 0.00 0.00 0.00 85 1009.0
20260506110515 18 169 6.4 19.3 0.00 0.00 0.00 84 1009.1
20260506105515 18 183 4.8 20.9 0.00 0.00 0.00 86 1009.0
20260506104535 17 187 4.8 14.5 0.00 0.00 0.00 88 1009.0
20260506103515 17 196 4.8 14.5 0.00 0.00 0.00 88 1008.9
20260506102516 17 177 6.4 16.1 0.00 0.00 0.00 88 1008.9
20260506101516 17 180 4.8 14.5 0.00 0.00 0.00 87 1009.0
20260506100536 17 202 6.4 14.5 0.00 0.00 0.00 88 1008.9
20260506095515 17 179 8.0 22.5 0.00 0.00 0.00 87 1008.9
20260506094515 18 189 4.8 19.3 0.00 0.00 0.00 87 1009.0
20260506093535 18 185 9.7 20.9 0.00 0.00 0.00 86 1009.0
20260506092515 18 192 6.4 16.1 0.00 0.00 0.00 86 1008.8
20260506091515 18 189 3.2 16.1 0.00 0.00 0.00 86 1009.0
20260506090515 18 186 4.8 14.5 0.00 0.00 0.00 85 1009.1
20260506085515 18 195 6.4 25.7 0.00 0.00 0.00 85 1009.1
20260506084515 18 175 6.4 20.9 0.00 0.00 0.00 84 1009.1
20260506083516 18 181 4.8 9.7 0.00 0.00 0.00 83 1009.0
20260506082515 18 170 4.8 19.3 0.00 0.00 0.00 83 1009.0
20260506081516 18 201 3.2 17.7 0.00 0.00 0.00 82 1008.9
20260506080536 18 186 6.4 19.3 0.00 0.00 0.00 82 1009.0
20260506073516 19 183 3.2 12.9 0.00 0.00 0.00 80 1009.3
20260506072515 19 177 3.2 16.1 0.00 0.00 0.00 79 1009.3
20260506071515 19 167 6.4 17.7 0.00 0.00 0.00 78 1009.3